Date String (YYYY-MM-DD hh:mm:ss) UTC,Instrument flags,absolute air pressure of the measurement (hPa),sample flow rate (lpm),inlet stack bypass flow (lpm),air temperature of the measurement (°C),ambient temperature measured by the external sensor (°C),aerosol sample conditioner tube jacket temperature (°C),OPC LED temperature (°C),internal box temperature (°C),relative humidity of the measurement (%),span deviation,mass concentration of particles derived from Lorenz-Mie calculation of OPC scattering (μg/m³),mass concentration of particles derived from Lorenz-Mie calculation of OPC scattering (μg/m³),mass concentration of particles derived from Lorenz-Mie calculation of OPC scattering (μg/m³)
DateTimeUTC,F1_M11,P_M11,Q1_M11,Q2_M11,T1_M11,T2_M11,T3_M11,T4_M11,T5_M11,U1_M11,ZSPAN_M11,X0_M11,X2_M11,X1_M11
2024-03-12 12:00:00,SystemResetWarning,0824.5,5.00,000.00,020.0,019.2,000.0,028.5,021.8,15.3,0000.0,0005.98,0002.17,0001.06
2024-03-12 12:01:00,SystemResetWarning,0824.6,5.00,000.00,020.0,019.2,000.0,028.5,021.8,15.6,0000.0,0005.99,0002.23,0001.06
2024-03-12 12:02:00,SystemResetWarning,0824.4,5.00,000.00,019.9,019.2,000.0,028.5,021.7,15.9,0000.0,0006.02,0002.26,0001.07
2024-03-12 12:03:00,SystemResetWarning,0824.4,5.01,000.00,019.9,019.2,000.0,028.5,021.7,16.0,0000.0,0005.76,0002.22,0001.06
2024-03-12 12:04:00,SystemResetWarning,0824.4,4.99,000.00,019.9,019.2,000.0,028.5,021.7,16.0,0000.0,0005.89,0002.26,0001.05
2024-03-12 12:05:00,SystemResetWarning,0824.3,5.00,000.00,019.9,019.2,000.0,028.5,021.7,15.8,0000.0,0005.97,0002.32,0001.06
2024-03-12 12:06:00,SystemResetWarning,0824.5,5.01,000.00,019.9,019.2,000.0,028.5,021.7,15.5,0000.0,0005.60,0002.33,0001.05
2024-03-12 12:07:00,SystemResetWarning,0824.5,5.00,000.00,019.9,019.2,000.0,028.5,021.7,15.8,0000.0,0005.15,0002.29,0001.04
2024-03-12 12:08:00,SystemResetWarning,0824.6,4.99,000.00,019.9,019.2,000.0,028.5,021.7,16.0,0000.0,0005.44,0002.37,0001.06
2024-03-12 12:09:00,SystemResetWarning,0824.6,4.99,000.00,019.9,019.2,000.0,028.4,021.7,16.1,0000.0,0005.28,0002.39,0001.08
2024-03-12 12:10:00,SystemResetWarning,0824.6,5.00,000.00,019.9,019.2,000.0,028.4,021.7,16.1,0000.0,0005.10,0002.40,0001.08
2024-03-12 12:11:00,SystemResetWarning,0824.7,5.00,000.00,019.9,019.2,000.0,028.4,021.7,16.2,0000.0,0005.17,0002.42,0001.08
2024-03-12 12:12:00,SystemResetWarning,0824.6,5.00,000.00,019.9,019.2,000.0,028.4,021.7,16.1,0000.0,0005.04,0002.36,0001.08
2024-03-12 12:13:00,SystemResetWarning,0824.5,5.01,000.00,019.9,019.2,000.0,028.4,021.7,15.4,0000.0,0005.17,0002.35,0001.07
2024-03-12 12:14:00,SystemResetWarning,0824.5,5.01,000.00,019.9,019.2,000.0,028.4,021.7,15.4,0000.0,0005.37,0002.35,0001.07
2024-03-12 12:15:00,SystemResetWarning,0824.5,4.99,000.00,019.9,019.2,000.0,028.4,021.6,15.9,0000.0,0005.22,0002.29,0001.05
2024-03-12 12:16:00,SystemResetWarning,0824.5,4.99,000.00,019.9,019.1,000.0,028.4,021.6,16.1,0000.0,0004.95,0002.20,0001.05
2024-03-12 12:17:00,SystemResetWarning,0824.5,5.00,000.00,019.9,019.1,000.0,028.4,021.6,15.5,0000.0,0004.95,0002.22,0001.08
2024-03-12 12:18:00,SystemResetWarning,0824.5,5.01,000.00,019.8,019.1,000.0,028.4,021.6,14.7,0000.0,0005.56,0002.41,0001.16
2024-03-12 12:19:00,SystemResetWarning,0824.5,5.01,000.00,019.8,019.1,000.0,028.4,021.6,14.7,0000.0,0006.43,0002.53,0001.22
2024-03-12 12:20:00,SystemResetWarning,0824.5,4.99,000.00,019.8,019.1,000.0,028.4,021.6,14.8,0000.0,0007.07,0002.56,0001.26
2024-03-12 12:21:00,SystemResetWarning,0824.6,4.99,000.00,019.8,019.1,000.0,028.4,021.6,14.7,0000.0,0007.39,0002.66,0001.31
2024-03-12 12:22:00,SystemResetWarning,0824.6,5.01,000.00,019.8,019.1,000.0,028.4,021.6,14.7,0000.0,0007.66,0002.77,0001.34
2024-03-12 12:23:00,SystemResetWarning,0824.7,5.00,000.00,019.8,019.1,000.0,028.4,021.6,14.7,0000.0,0007.98,0002.86,0001.36
2024-03-12 12:24:00,SystemResetWarning,0824.7,5.01,000.00,019.8,019.1,000.0,028.4,021.6,14.8,0000.0,0008.01,0002.87,0001.38
2024-03-12 12:25:00,SystemResetWarning,0824.7,5.00,000.00,019.8,019.1,000.0,028.3,021.6,14.9,0000.0,0007.87,0002.86,0001.41
2024-03-12 12:26:00,SystemResetWarning,0824.6,4.99,000.00,019.8,019.1,000.0,028.3,021.6,15.0,0000.0,0008.01,0002.93,0001.43
2024-03-12 12:27:00,SystemResetWarning,0824.6,4.99,000.00,019.8,019.1,000.0,028.3,021.6,14.5,0000.0,0007.96,0002.90,0001.44
2024-03-12 12:28:00,SystemResetWarning,0824.6,5.00,000.00,019.8,019.0,000.0,028.3,021.5,14.3,0000.0,0007.97,0002.90,0001.42
2024-03-12 12:29:00,SystemResetWarning,0824.7,5.00,000.00,019.8,019.0,000.0,028.3,021.5,14.2,0000.0,0007.77,0002.74,0001.34
2024-03-12 12:30:00,SystemResetWarning,0824.7,5.00,000.00,019.7,019.0,000.0,028.3,021.5,14.1,0000.0,0007.46,0002.56,0001.27
2024-03-12 12:31:00,SystemResetWarning,0824.4,5.00,000.00,019.7,019.0,000.0,028.3,021.5,13.9,0000.0,0007.00,0002.50,0001.22
2024-03-12 12:32:00,SystemResetWarning,0824.5,5.00,000.00,019.7,019.0,000.0,028.3,021.5,13.7,0000.0,0006.80,0002.44,0001.18
2024-03-12 12:33:00,SystemResetWarning,0824.7,5.00,000.00,019.7,019.0,000.0,028.3,021.5,13.9,0000.0,0007.41,0002.37,0001.16
2024-03-12 12:34:00,SystemResetWarning,0824.6,5.00,000.00,019.7,019.0,000.0,028.3,021.5,14.2,0000.0,0007.11,0002.31,0001.15
2024-03-12 12:35:00,SystemResetWarning,0824.6,5.00,000.00,019.7,019.0,000.0,028.2,021.5,14.0,0000.0,0006.85,0002.24,0001.13
2024-03-12 12:36:00,SystemResetWarning,0824.6,5.00,000.00,019.7,019.0,000.0,028.2,021.4,14.2,0000.0,0006.80,0002.20,0001.11
2024-03-12 12:37:00,SystemResetWarning,0824.7,5.01,000.00,019.7,019.0,000.0,028.2,021.4,14.1,0000.0,0006.73,0002.16,0001.09
2024-03-12 12:38:00,SystemResetWarning,0824.7,5.01,000.00,019.7,019.0,000.0,028.2,021.5,14.2,0000.0,0007.02,0002.18,0001.08
2024-03-12 12:39:00,SystemResetWarning,0824.7,5.00,000.00,019.7,019.0,000.0,028.2,021.5,14.2,0000.0,0007.17,0002.24,0001.09
2024-03-12 12:40:00,SystemResetWarning,0824.3,5.00,000.00,019.7,019.0,000.0,028.2,021.5,13.8,0000.0,0006.94,0002.17,0001.09
2024-03-12 12:41:00,SystemResetWarning,0824.5,4.99,000.00,019.7,019.0,000.0,028.2,021.4,13.7,0000.0,0006.31,0002.21,0001.09
2024-03-12 12:42:00,SystemResetWarning,0824.6,4.99,000.00,019.7,018.9,000.0,028.2,021.4,14.0,0000.0,0006.82,0002.29,0001.10
2024-03-12 12:43:00,SystemResetWarning,0824.6,5.01,000.00,019.7,018.9,000.0,028.2,021.4,14.1,0000.0,0006.85,0002.26,0001.09
2024-03-12 12:44:00,SystemResetWarning,0824.6,5.01,000.00,019.6,018.9,000.0,028.2,021.4,14.3,0000.0,0005.81,0002.21,0001.07
2024-03-12 12:45:00,SystemResetWarning,0824.7,5.01,000.00,019.6,018.9,000.0,028.2,021.4,14.2,0000.0,0006.01,0002.22,0001.06
2024-03-12 12:46:00,SystemResetWarning,0824.6,5.00,000.00,019.6,018.8,000.0,028.2,021.4,14.0,0000.0,0005.91,0002.23,0001.07
2024-03-12 12:47:00,SystemResetWarning,0824.7,4.99,000.00,019.6,018.8,000.0,028.1,021.4,13.9,0000.0,0006.02,0002.26,0001.08
2024-03-12 12:48:00,SystemResetWarning,0824.7,5.01,000.00,019.6,018.8,000.0,028.1,021.4,13.9,0000.0,0006.31,0002.33,0001.09
2024-03-12 12:49:00,SystemResetWarning,0824.7,5.02,000.00,019.6,018.8,000.0,028.1,021.4,14.1,0000.0,0005.91,0002.30,0001.10
2024-03-12 12:50:00,SystemResetWarning,0824.7,5.00,000.00,019.6,018.8,000.0,028.1,021.3,14.3,0000.0,0005.88,0002.26,0001.10
2024-03-12 12:51:00,SystemResetWarning,0824.7,4.99,000.00,019.6,018.8,000.0,028.1,021.3,14.2,0000.0,0006.52,0002.25,0001.09
2024-03-12 12:52:00,SystemResetWarning,0824.6,5.00,000.00,019.6,018.9,000.0,028.1,021.3,14.3,0000.0,0006.52,0002.23,0001.10
2024-03-12 12:53:00,SystemResetWarning,0824.5,5.01,000.00,019.6,018.9,000.0,028.1,021.4,14.3,0000.0,0006.24,0002.18,0001.09
2024-03-12 12:54:00,SystemResetWarning,0824.5,5.01,000.00,019.6,018.9,000.0,028.1,021.3,14.4,0000.0,0006.10,0002.17,0001.09
2024-03-12 12:55:00,SystemResetWarning,0824.6,4.98,000.00,019.6,018.8,000.0,028.1,021.3,14.5,0000.0,0006.20,0002.21,0001.11
2024-03-12 12:56:00,SystemResetWarning,0824.6,5.00,000.00,019.6,018.8,000.0,028.1,021.3,14.5,0000.0,0005.76,0002.19,0001.12
2024-03-12 12:57:00,SystemResetWarning,0824.5,5.00,000.00,019.5,018.8,000.0,028.1,021.3,14.5,0000.0,0005.85,0002.22,0001.13
2024-03-12 12:58:00,SystemResetWarning,0824.5,5.01,000.00,019.5,018.8,000.0,028.1,021.3,14.6,0000.0,0005.85,0002.25,0001.13
2024-03-12 12:59:00,SystemResetWarning,0824.5,5.00,000.00,019.5,018.8,000.0,028.1,021.3,14.5,0000.0,0005.63,0002.20,0001.14
